owner,sensor,date,latitude,longitude,vertical_datum,mass_concentration_of_oxygen_in_sea_water,qcFlag 
DISL,ioos:station:DISL:BSCA:1,2015-01-01T00:00:00Z,30.3288,-87.8293,2.052,1.77,1111122 
DISL,ioos:station:DISL:BSCA:1,2015-01-01T00:30:00Z,30.3288,-87.8293,2.054,1.95,1111122 
DISL,ioos:station:DISL:BSCA:1,2015-01-01T01:00:00Z,30.3288,-87.8293,2.065,2.02,1111122 
DISL,ioos:station:DISL:BSCA:1,2015-01-01T01:30:00Z,30.3288,-87.8293,2.088,1.72,1111122 
DISL,ioos:station:DISL:BSCA:1,2015-01-01T02:00:00Z,30.3288,-87.8293,2.074,1.67,1111122 
DISL,ioos:station:DISL:BSCA:1,2015-01-01T02:30:00Z,30.3288,-87.8293,2.066,1.72,1111122 
DISL,ioos:station:DISL:BSCA:1,2015-01-01T03:00:00Z,30.3288,-87.8293,1.952,9.16,1111122 
DISL,ioos:station:DISL:BSCA:1,2015-01-01T03:30:00Z,30.3288,-87.8293,1.988,1.65,1111122 
DISL,ioos:station:DISL:BSCA:1,2015-01-01T04:00:00Z,30.3288,-87.8293,1.928,2.09,1111122 
DISL,ioos:station:DISL:BSCA:1,2015-01-01T04:30:00Z,30.3288,-87.8293,1.899,1.83,1111122 
DISL,ioos:station:DISL:BSCA:1,2015-01-01T05:00:00Z,30.3288,-87.8293,1.848,8.41,1111122 
DISL,ioos:station:DISL:BSCA:1,2015-01-01T05:30:00Z,30.3288,-87.8293,1.847,1.99,1111122 
DISL,ioos:station:DISL:BSCA:1,2015-01-01T06:00:00Z,30.3288,-87.8293,1.855,1.5,1111122 
DISL,ioos:station:DISL:BSCA:1,2015-01-01T06:30:00Z,30.3288,-87.8293,1.856,1.63,1111122 
DISL,ioos:station:DISL:BSCA:1,2015-01-01T07:00:00Z,30.3288,-87.8293,1.854,1.64,1111122 
DISL,ioos:station:DISL:BSCA:1,2015-01-01T07:30:00Z,30.3288,-87.8293,1.829,1.68,1111122 
DISL,ioos:station:DISL:BSCA:1,2015-01-01T08:00:00Z,30.3288,-87.8293,1.76,7.24,1111122 
DISL,ioos:station:DISL:BSCA:1,2015-01-01T08:30:00Z,30.3288,-87.8293,1.765,1.39,1111122 
DISL,ioos:station:DISL:BSCA:1,2015-01-01T09:00:00Z,30.3288,-87.8293,1.712,1.81,1111122 
DISL,ioos:station:DISL:BSCA:1,2015-01-01T09:30:00Z,30.3288,-87.8293,1.672,1.56,1111122 
DISL,ioos:station:DISL:BSCA:1,2015-01-01T10:00:00Z,30.3288,-87.8293,1.614,1.6,1111122 
DISL,ioos:station:DISL:BSCA:1,2015-01-01T10:30:00Z,30.3288,-87.8293,1.623,1.42,1111122 
DISL,ioos:station:DISL:BSCA:1,2015-01-01T11:00:00Z,30.3288,-87.8293,1.579,1.57,1111122 
DISL,ioos:station:DISL:BSCA:1,2015-01-01T11:30:00Z,30.3288,-87.8293,1.508,8.09,1111122 
DISL,ioos:station:DISL:BSCA:1,2015-01-01T12:00:00Z,30.3288,-87.8293,1.536,1.63,1111122 
DISL,ioos:station:DISL:BSCA:1,2015-01-01T12:30:00Z,30.3288,-87.8293,1.545,1.5,1111122 
DISL,ioos:station:DISL:BSCA:1,2015-01-01T13:00:00Z,30.3288,-87.8293,1.542,1.75,1111122 
DISL,ioos:station:DISL:BSCA:1,2015-01-01T13:30:00Z,30.3288,-87.8293,1.538,2.5,1111122 
DISL,ioos:station:DISL:BSCA:1,2015-01-01T14:00:00Z,30.3288,-87.8293,1.566,2.42,1111122 
DISL,ioos:station:DISL:BSCA:1,2015-01-01T14:30:00Z,30.3288,-87.8293,1.613,2.22,1111122 
DISL,ioos:station:DISL:BSCA:1,2015-01-01T15:00:00Z,30.3288,-87.8293,1.638,2.46,1111122 
DISL,ioos:station:DISL:BSCA:1,2015-01-01T15:30:00Z,30.3288,-87.8293,1.699,2.08,1111122 
DISL,ioos:station:DISL:BSCA:1,2015-01-01T16:00:00Z,30.3288,-87.8293,1.735,2.22,1111122 
DISL,ioos:station:DISL:BSCA:1,2015-01-01T16:30:00Z,30.3288,-87.8293,1.775,1.71,1111122 
DISL,ioos:station:DISL:BSCA:1,2015-01-01T17:00:00Z,30.3288,-87.8293,1.819,1.8,1111122 
DISL,ioos:station:DISL:BSCA:1,2015-01-01T17:30:00Z,30.3288,-87.8293,1.846,1.64,1111122 
DISL,ioos:station:DISL:BSCA:1,2015-01-01T18:00:00Z,30.3288,-87.8293,1.878,1.66,1111122 
DISL,ioos:station:DISL:BSCA:1,2015-01-01T18:30:00Z,30.3288,-87.8293,1.899,1.76,1111122 
DISL,ioos:station:DISL:BSCA:1,2015-01-01T19:00:00Z,30.3288,-87.8293,1.934,1.8,1111122 
DISL,ioos:station:DISL:BSCA:1,2015-01-01T19:30:00Z,30.3288,-87.8293,1.972,1.59,1111122 
DISL,ioos:station:DISL:BSCA:1,2015-01-01T20:00:00Z,30.3288,-87.8293,2.003,1.77,1111122 
DISL,ioos:station:DISL:BSCA:1,2015-01-01T20:30:00Z,30.3288,-87.8293,2.029,1.96,1111122 
DISL,ioos:station:DISL:BSCA:1,2015-01-01T21:00:00Z,30.3288,-87.8293,2.063,1.86,1111122 
DISL,ioos:station:DISL:BSCA:1,2015-01-01T21:30:00Z,30.3288,-87.8293,2.096,1.78,1111122 
DISL,ioos:station:DISL:BSCA:1,2015-01-01T22:00:00Z,30.3288,-87.8293,2.13,1.76,1111122 
DISL,ioos:station:DISL:BSCA:1,2015-01-01T22:30:00Z,30.3288,-87.8293,2.154,1.86,1111122 
DISL,ioos:station:DISL:BSCA:1,2015-01-01T23:00:00Z,30.3288,-87.8293,2.162,2.02,1111122 
DISL,ioos:station:DISL:BSCA:1,2015-01-01T23:30:00Z,30.3288,-87.8293,2.171,2.24,1111122 
DISL,ioos:station:DISL:BSCA:1,2015-01-02T00:00:00Z,30.3288,-87.8293,2.196,1.13,1111122 
DISL,ioos:station:DISL:BSCA:1,2015-01-02T00:30:00Z,30.3288,-87.8293,2.212,1.12,1111122 
DISL,ioos:station:DISL:BSCA:1,2015-01-02T01:00:00Z,30.3288,-87.8293,2.205,1.18,1111122 
DISL,ioos:station:DISL:BSCA:1,2015-01-02T01:30:00Z,30.3288,-87.8293,2.212,1.2,1111122 
DISL,ioos:station:DISL:BSCA:1,2015-01-02T02:00:00Z,30.3288,-87.8293,2.204,1.13,1111122 
DISL,ioos:station:DISL:BSCA:1,2015-01-02T02:30:00Z,30.3288,-87.8293,2.189,1.29,1111122 
DISL,ioos:station:DISL:BSCA:1,2015-01-02T03:00:00Z,30.3288,-87.8293,2.161,1.71,1111122 
DISL,ioos:station:DISL:BSCA:1,2015-01-02T03:30:00Z,30.3288,-87.8293,2.134,1.33,1111122 
DISL,ioos:station:DISL:BSCA:1,2015-01-02T04:00:00Z,30.3288,-87.8293,2.11,1.33,1111122 
DISL,ioos:station:DISL:BSCA:1,2015-01-02T04:30:00Z,30.3288,-87.8293,2.063,1.4,1111122 
DISL,ioos:station:DISL:BSCA:1,2015-01-02T05:00:00Z,30.3288,-87.8293,2.009,1.53,1111122 
DISL,ioos:station:DISL:BSCA:1,2015-01-02T05:30:00Z,30.3288,-87.8293,1.942,2.05,1111122 
DISL,ioos:station:DISL:BSCA:1,2015-01-02T06:00:00Z,30.3288,-87.8293,1.907,2.26,1111122 
DISL,ioos:station:DISL:BSCA:1,2015-01-02T06:30:00Z,30.3288,-87.8293,1.871,2.53,1111122 
DISL,ioos:station:DISL:BSCA:1,2015-01-02T07:00:00Z,30.3288,-87.8293,1.862,1.82,1111122 
DISL,ioos:station:DISL:BSCA:1,2015-01-02T07:30:00Z,30.3288,-87.8293,1.831,1.89,1111122 
DISL,ioos:station:DISL:BSCA:1,2015-01-02T08:00:00Z,30.3288,-87.8293,1.82,1.73,1111122 
DISL,ioos:station:DISL:BSCA:1,2015-01-02T08:30:00Z,30.3288,-87.8293,1.79,1.78,1111122 
DISL,ioos:station:DISL:BSCA:1,2015-01-02T09:00:00Z,30.3288,-87.8293,1.768,1.53,1111122 
DISL,ioos:station:DISL:BSCA:1,2015-01-02T09:30:00Z,30.3288,-87.8293,1.745,1.83,1111122 
DISL,ioos:station:DISL:BSCA:1,2015-01-02T10:00:00Z,30.3288,-87.8293,1.707,2.52,1111122 
DISL,ioos:station:DISL:BSCA:1,2015-01-02T10:30:00Z,30.3288,-87.8293,1.701,1.75,1111122 
DISL,ioos:station:DISL:BSCA:1,2015-01-02T11:00:00Z,30.3288,-87.8293,1.627,8.11,1111122 
DISL,ioos:station:DISL:BSCA:1,2015-01-02T11:30:00Z,30.3288,-87.8293,1.62,8.03,1111122 
DISL,ioos:station:DISL:BSCA:1,2015-01-02T12:00:00Z,30.3288,-87.8293,1.635,1.73,1111122 
DISL,ioos:station:DISL:BSCA:1,2015-01-02T12:30:00Z,30.3288,-87.8293,1.637,1.49,1111122 
DISL,ioos:station:DISL:BSCA:1,2015-01-02T13:00:00Z,30.3288,-87.8293,1.638,1.63,1111122 
DISL,ioos:station:DISL:BSCA:1,2015-01-02T13:30:00Z,30.3288,-87.8293,1.662,1.37,1111122 
DISL,ioos:station:DISL:BSCA:1,2015-01-02T14:00:00Z,30.3288,-87.8293,1.687,1.4,1111122 
DISL,ioos:station:DISL:BSCA:1,2015-01-02T14:30:00Z,30.3288,-87.8293,1.703,1.8,1111122 
DISL,ioos:station:DISL:BSCA:1,2015-01-02T15:00:00Z,30.3288,-87.8293,1.756,1.24,1111122 
DISL,ioos:station:DISL:BSCA:1,2015-01-02T15:30:00Z,30.3288,-87.8293,1.776,1.17,1111122 
DISL,ioos:station:DISL:BSCA:1,2015-01-02T16:00:00Z,30.3288,-87.8293,1.805,1.47,1111122 
DISL,ioos:station:DISL:BSCA:1,2015-01-02T16:30:00Z,30.3288,-87.8293,1.827,1.34,1111122 
DISL,ioos:station:DISL:BSCA:1,2015-01-02T17:00:00Z,30.3288,-87.8293,1.856,1.56,1111122 
DISL,ioos:station:DISL:BSCA:1,2015-01-02T17:30:00Z,30.3288,-87.8293,1.887,1.58,1111122 
DISL,ioos:station:DISL:BSCA:1,2015-01-02T18:00:00Z,30.3288,-87.8293,1.91,1.69,1111122 
DISL,ioos:station:DISL:BSCA:1,2015-01-02T18:30:00Z,30.3288,-87.8293,1.932,1.67,1111122 
DISL,ioos:station:DISL:BSCA:1,2015-01-02T19:00:00Z,30.3288,-87.8293,1.963,1.66,1111122 
DISL,ioos:station:DISL:BSCA:1,2015-01-02T19:30:00Z,30.3288,-87.8293,2.003,1.71,1111122 
DISL,ioos:station:DISL:BSCA:1,2015-01-02T20:00:00Z,30.3288,-87.8293,2.024,1.92,1111122 
DISL,ioos:station:DISL:BSCA:1,2015-01-02T20:30:00Z,30.3288,-87.8293,2.067,1.63,1111122 
DISL,ioos:station:DISL:BSCA:1,2015-01-02T21:00:00Z,30.3288,-87.8293,2.088,1.6,1111122 
DISL,ioos:station:DISL:BSCA:1,2015-01-02T21:30:00Z,30.3288,-87.8293,2.113,0.8,1111122 
DISL,ioos:station:DISL:BSCA:1,2015-01-02T22:00:00Z,30.3288,-87.8293,2.122,1.75,1111122 
DISL,ioos:station:DISL:BSCA:1,2015-01-02T22:30:00Z,30.3288,-87.8293,2.153,1.7,1111122 
DISL,ioos:station:DISL:BSCA:1,2015-01-02T23:00:00Z,30.3288,-87.8293,2.158,2.02,1111122 
DISL,ioos:station:DISL:BSCA:1,2015-01-02T23:30:00Z,30.3288,-87.8293,2.179,2.07,1111122 
DISL,ioos:station:DISL:BSCA:1,2015-01-03T00:00:00Z,30.3288,-87.8293,2.187,2.8,1111122 
DISL,ioos:station:DISL:BSCA:1,2015-01-03T00:30:00Z,30.3288,-87.8293,2.21,2.27,1111122 
DISL,ioos:station:DISL:BSCA:1,2015-01-03T01:00:00Z,30.3288,-87.8293,2.211,2.2,1111122 
DISL,ioos:station:DISL:BSCA:1,2015-01-03T01:30:00Z,30.3288,-87.8293,2.233,1.89,1111122 
DISL,ioos:station:DISL:BSCA:1,2015-01-03T02:00:00Z,30.3288,-87.8293,2.235,1.41,1111122 
DISL,ioos:station:DISL:BSCA:1,2015-01-03T02:30:00Z,30.3288,-87.8293,2.234,1.91,1111122 
DISL,ioos:station:DISL:BSCA:1,2015-01-03T03:00:00Z,30.3288,-87.8293,2.216,1.43,1111122 
DISL,ioos:station:DISL:BSCA:1,2015-01-03T03:30:00Z,30.3288,-87.8293,2.204,1.6,1111122 
DISL,ioos:station:DISL:BSCA:1,2015-01-03T04:00:00Z,30.3288,-87.8293,2.207,0.97,1111122 
DISL,ioos:station:DISL:BSCA:1,2015-01-03T04:30:00Z,30.3288,-87.8293,2.185,1.32,1111122 
DISL,ioos:station:DISL:BSCA:1,2015-01-03T05:00:00Z,30.3288,-87.8293,2.149,2.42,1111122 
DISL,ioos:station:DISL:BSCA:1,2015-01-03T05:30:00Z,30.3288,-87.8293,2.125,2.38,1111122 
DISL,ioos:station:DISL:BSCA:1,2015-01-03T06:00:00Z,30.3288,-87.8293,2.081,1.89,1111122 
DISL,ioos:station:DISL:BSCA:1,2015-01-03T06:30:00Z,30.3288,-87.8293,2.055,1.8,1111122 
DISL,ioos:station:DISL:BSCA:1,2015-01-03T07:00:00Z,30.3288,-87.8293,2.01,1.86,1111122 
DISL,ioos:station:DISL:BSCA:1,2015-01-03T07:30:00Z,30.3288,-87.8293,1.973,2.05,1111122 
DISL,ioos:station:DISL:BSCA:1,2015-01-03T08:00:00Z,30.3288,-87.8293,1.943,1.94,1111122 
DISL,ioos:station:DISL:BSCA:1,2015-01-03T08:30:00Z,30.3288,-87.8293,1.895,2.37,1111122 
DISL,ioos:station:DISL:BSCA:1,2015-01-03T09:00:00Z,30.3288,-87.8293,1.858,2.35,1111122 
DISL,ioos:station:DISL:BSCA:1,2015-01-03T09:30:00Z,30.3288,-87.8293,1.833,1.94,1111122 
DISL,ioos:station:DISL:BSCA:1,2015-01-03T10:00:00Z,30.3288,-87.8293,1.817,1.51,1111122 
DISL,ioos:station:DISL:BSCA:1,2015-01-03T10:30:00Z,30.3288,-87.8293,1.793,1.64,1111122 
DISL,ioos:station:DISL:BSCA:1,2015-01-03T11:00:00Z,30.3288,-87.8293,1.77,1.89,1111122 
DISL,ioos:station:DISL:BSCA:1,2015-01-03T11:30:00Z,30.3288,-87.8293,1.746,2.34,1111122 
DISL,ioos:station:DISL:BSCA:1,2015-01-03T12:00:00Z,30.3288,-87.8293,1.738,2.43,1111122 
DISL,ioos:station:DISL:BSCA:1,2015-01-03T12:30:00Z,30.3288,-87.8293,1.719,2.16,1111122 
DISL,ioos:station:DISL:BSCA:1,2015-01-03T13:00:00Z,30.3288,-87.8293,1.735,2.02,1111122 
DISL,ioos:station:DISL:BSCA:1,2015-01-03T13:30:00Z,30.3288,-87.8293,1.732,1.65,1111122 
DISL,ioos:station:DISL:BSCA:1,2015-01-03T14:00:00Z,30.3288,-87.8293,1.741,1.87,1111122 
DISL,ioos:station:DISL:BSCA:1,2015-01-03T14:30:00Z,30.3288,-87.8293,1.761,1.8,1111122 
DISL,ioos:station:DISL:BSCA:1,2015-01-03T15:00:00Z,30.3288,-87.8293,1.778,1.91,1111122 
DISL,ioos:station:DISL:BSCA:1,2015-01-03T15:30:00Z,30.3288,-87.8293,1.801,1.82,1111122 
DISL,ioos:station:DISL:BSCA:1,2015-01-03T16:00:00Z,30.3288,-87.8293,1.833,1.64,1111122 
DISL,ioos:station:DISL:BSCA:1,2015-01-03T16:30:00Z,30.3288,-87.8293,1.863,1.88,1111122 
DISL,ioos:station:DISL:BSCA:1,2015-01-03T17:00:00Z,30.3288,-87.8293,1.899,1.44,1111122 
DISL,ioos:station:DISL:BSCA:1,2015-01-03T17:30:00Z,30.3288,-87.8293,1.922,1.51,1111122 
DISL,ioos:station:DISL:BSCA:1,2015-01-03T18:00:00Z,30.3288,-87.8293,1.96,1.43,1111122 
DISL,ioos:station:DISL:BSCA:1,2015-01-03T18:30:00Z,30.3288,-87.8293,1.961,1.99,1111122 
DISL,ioos:station:DISL:BSCA:1,2015-01-03T19:00:00Z,30.3288,-87.8293,1.996,2.16,1111122 
DISL,ioos:station:DISL:BSCA:1,2015-01-03T19:30:00Z,30.3288,-87.8293,2.025,2.17,1111122 
DISL,ioos:station:DISL:BSCA:1,2015-01-03T20:00:00Z,30.3288,-87.8293,2.074,2.07,1111122 
DISL,ioos:station:DISL:BSCA:1,2015-01-03T20:30:00Z,30.3288,-87.8293,2.179,2.08,1111122 
DISL,ioos:station:DISL:BSCA:1,2015-01-03T21:00:00Z,30.3288,-87.8293,2.163,1.36,1111122 
DISL,ioos:station:DISL:BSCA:1,2015-01-03T21:30:00Z,30.3288,-87.8293,2.182,1.52,1111122 
DISL,ioos:station:DISL:BSCA:1,2015-01-03T22:00:00Z,30.3288,-87.8293,2.074,2.26,1111122 
DISL,ioos:station:DISL:BSCA:1,2015-01-03T22:30:00Z,30.3288,-87.8293,2.261,2.15,1111122 
DISL,ioos:station:DISL:BSCA:1,2015-01-03T23:00:00Z,30.3288,-87.8293,2.302,2.57,1111122 
DISL,ioos:station:DISL:BSCA:1,2015-01-03T23:30:00Z,30.3288,-87.8293,2.363,1.68,1111122 
DISL,ioos:station:DISL:BSCA:1,2015-01-04T00:00:00Z,30.3288,-87.8293,2.377,2.49,1111122 
DISL,ioos:station:DISL:BSCA:1,2015-01-04T00:30:00Z,30.3288,-87.8293,2.405,2.38,1111122 
DISL,ioos:station:DISL:BSCA:1,2015-01-04T01:00:00Z,30.3288,-87.8293,2.362,9.21,1111122 
DISL,ioos:station:DISL:BSCA:1,2015-01-04T01:30:00Z,30.3288,-87.8293,2.446,1.76,1111122 
DISL,ioos:station:DISL:BSCA:1,2015-01-04T02:00:00Z,30.3288,-87.8293,2.448,2.27,1111122 
DISL,ioos:station:DISL:BSCA:1,2015-01-04T02:30:00Z,30.3288,-87.8293,2.456,1.66,1111122 
DISL,ioos:station:DISL:BSCA:1,2015-01-04T03:00:00Z,30.3288,-87.8293,2.456,2.1,1111122 
DISL,ioos:station:DISL:BSCA:1,2015-01-04T03:30:00Z,30.3288,-87.8293,2.448,2.25,1111122 
DISL,ioos:station:DISL:BSCA:1,2015-01-04T04:00:00Z,30.3288,-87.8293,2.446,2.27,1111122 
DISL,ioos:station:DISL:BSCA:1,2015-01-04T04:30:00Z,30.3288,-87.8293,2.437,2.02,1111122 
DISL,ioos:station:DISL:BSCA:1,2015-01-04T05:00:00Z,30.3288,-87.8293,2.395,2.28,1111122 
DISL,ioos:station:DISL:BSCA:1,2015-01-04T05:30:00Z,30.3288,-87.8293,2.413,2.2,1111122 
DISL,ioos:station:DISL:BSCA:1,2015-01-04T06:00:00Z,30.3288,-87.8293,2.396,1.85,1111122 
DISL,ioos:station:DISL:BSCA:1,2015-01-04T06:30:00Z,30.3288,-87.8293,2.359,1.69,1111122 
DISL,ioos:station:DISL:BSCA:1,2015-01-04T07:00:00Z,30.3288,-87.8293,2.308,1.77,1111122 
DISL,ioos:station:DISL:BSCA:1,2015-01-04T07:30:00Z,30.3288,-87.8293,2.315,1.62,1111122 
DISL,ioos:station:DISL:BSCA:1,2015-01-04T08:00:00Z,30.3288,-87.8293,2.204,1.6,1111122 
DISL,ioos:station:DISL:BSCA:1,2015-01-04T08:30:00Z,30.3288,-87.8293,2.211,1.85,1111122 
DISL,ioos:station:DISL:BSCA:1,2015-01-04T09:00:00Z,30.3288,-87.8293,2.173,1.8,1111122 
DISL,ioos:station:DISL:BSCA:1,2015-01-04T09:30:00Z,30.3288,-87.8293,2.122,1.72,1111122 
DISL,ioos:station:DISL:BSCA:1,2015-01-04T10:00:00Z,30.3288,-87.8293,2.126,1.54,1111122 
DISL,ioos:station:DISL:BSCA:1,2015-01-04T10:30:00Z,30.3288,-87.8293,2.069,1.37,1111122 
DISL,ioos:station:DISL:BSCA:1,2015-01-04T11:00:00Z,30.3288,-87.8293,2.048,1.6,1111122 
DISL,ioos:station:DISL:BSCA:1,2015-01-04T11:30:00Z,30.3288,-87.8293,2.012,1.58,1111122 
DISL,ioos:station:DISL:BSCA:1,2015-01-04T12:00:00Z,30.3288,-87.8293,1.968,1.5,1111122 
DISL,ioos:station:DISL:BSCA:1,2015-01-04T12:30:00Z,30.3288,-87.8293,1.934,1.51,1111122 
DISL,ioos:station:DISL:BSCA:1,2015-01-04T13:00:00Z,30.3288,-87.8293,1.881,2.05,1111122 
DISL,ioos:station:DISL:BSCA:1,2015-01-04T13:30:00Z,30.3288,-87.8293,1.835,2.28,1111122 
DISL,ioos:station:DISL:BSCA:1,2015-01-04T14:00:00Z,30.3288,-87.8293,1.814,1.6,1111122 
DISL,ioos:station:DISL:BSCA:1,2015-01-04T14:30:00Z,30.3288,-87.8293,1.789,2.07,1111122 
DISL,ioos:station:DISL:BSCA:1,2015-01-04T15:00:00Z,30.3288,-87.8293,1.774,2.07,1111122 
DISL,ioos:station:DISL:BSCA:1,2015-01-04T15:30:00Z,30.3288,-87.8293,1.772,2.15,1111122 
DISL,ioos:station:DISL:BSCA:1,2015-01-04T16:00:00Z,30.3288,-87.8293,1.749,2.17,1111122 
DISL,ioos:station:DISL:BSCA:1,2015-01-04T16:30:00Z,30.3288,-87.8293,1.766,2.16,1111122 
DISL,ioos:station:DISL:BSCA:1,2015-01-04T17:00:00Z,30.3288,-87.8293,1.752,2.48,1111122 
DISL,ioos:station:DISL:BSCA:1,2015-01-04T17:30:00Z,30.3288,-87.8293,1.779,2.29,1111122 
DISL,ioos:station:DISL:BSCA:1,2015-01-04T18:00:00Z,30.3288,-87.8293,1.783,2.48,1111122 
DISL,ioos:station:DISL:BSCA:1,2015-01-04T18:30:00Z,30.3288,-87.8293,1.803,2.21,1111122 
DISL,ioos:station:DISL:BSCA:1,2015-01-04T19:00:00Z,30.3288,-87.8293,1.858,2.27,1111122 
DISL,ioos:station:DISL:BSCA:1,2015-01-04T19:30:00Z,30.3288,-87.8293,1.859,2.35,1111122 
DISL,ioos:station:DISL:BSCA:1,2015-01-04T20:00:00Z,30.3288,-87.8293,1.888,2.47,1111122 
DISL,ioos:station:DISL:BSCA:1,2015-01-04T20:30:00Z,30.3288,-87.8293,1.886,2.41,1111122 
DISL,ioos:station:DISL:BSCA:1,2015-01-04T21:00:00Z,30.3288,-87.8293,1.906,2.41,1111122 
DISL,ioos:station:DISL:BSCA:1,2015-01-04T21:30:00Z,30.3288,-87.8293,1.901,2.72,1111122 
DISL,ioos:station:DISL:BSCA:1,2015-01-04T22:00:00Z,30.3288,-87.8293,1.927,2.46,1111122 
DISL,ioos:station:DISL:BSCA:1,2015-01-04T22:30:00Z,30.3288,-87.8293,1.92,2.52,1111122 
DISL,ioos:station:DISL:BSCA:1,2015-01-04T23:00:00Z,30.3288,-87.8293,1.918,8.44,1111122 
DISL,ioos:station:DISL:BSCA:1,2015-01-04T23:30:00Z,30.3288,-87.8293,1.931,8.61,1111122 
DISL,ioos:station:DISL:BSCA:1,2015-01-05T00:00:00Z,30.3288,-87.8293,2.01,2.29,1111122 
DISL,ioos:station:DISL:BSCA:1,2015-01-05T00:30:00Z,30.3288,-87.8293,2.059,1.82,1111122 
DISL,ioos:station:DISL:BSCA:1,2015-01-05T01:00:00Z,30.3288,-87.8293,2.103,2.42,1111122 
DISL,ioos:station:DISL:BSCA:1,2015-01-05T01:30:00Z,30.3288,-87.8293,2.177,2.49,1111122 
DISL,ioos:station:DISL:BSCA:1,2015-01-05T02:00:00Z,30.3288,-87.8293,2.238,2.05,1111122 
DISL,ioos:station:DISL:BSCA:1,2015-01-05T02:30:00Z,30.3288,-87.8293,2.281,2.03,1111122 
DISL,ioos:station:DISL:BSCA:1,2015-01-05T03:00:00Z,30.3288,-87.8293,2.26,2.13,1111122 
DISL,ioos:station:DISL:BSCA:1,2015-01-05T03:30:00Z,30.3288,-87.8293,2.263,2.16,1111122 
DISL,ioos:station:DISL:BSCA:1,2015-01-05T04:00:00Z,30.3288,-87.8293,2.19,2.01,1111122 
DISL,ioos:station:DISL:BSCA:1,2015-01-05T04:30:00Z,30.3288,-87.8293,2.154,2.09,1111122 
DISL,ioos:station:DISL:BSCA:1,2015-01-05T05:00:00Z,30.3288,-87.8293,2.127,2.04,1111122 
DISL,ioos:station:DISL:BSCA:1,2015-01-05T05:30:00Z,30.3288,-87.8293,2.066,2.24,1111122 
DISL,ioos:station:DISL:BSCA:1,2015-01-05T06:00:00Z,30.3288,-87.8293,2.04,2.22,1111122 
DISL,ioos:station:DISL:BSCA:1,2015-01-05T06:30:00Z,30.3288,-87.8293,2.046,2.26,1111122 
DISL,ioos:station:DISL:BSCA:1,2015-01-05T07:00:00Z,30.3288,-87.8293,1.986,2.37,1111122 
DISL,ioos:station:DISL:BSCA:1,2015-01-05T07:30:00Z,30.3288,-87.8293,1.96,2.33,1111122 
DISL,ioos:station:DISL:BSCA:1,2015-01-05T08:00:00Z,30.3288,-87.8293,1.918,1.99,1111122 
DISL,ioos:station:DISL:BSCA:1,2015-01-05T08:30:00Z,30.3288,-87.8293,1.85,1.96,1111122 
DISL,ioos:station:DISL:BSCA:1,2015-01-05T09:00:00Z,30.3288,-87.8293,1.791,2.02,1111122 
DISL,ioos:station:DISL:BSCA:1,2015-01-05T09:30:00Z,30.3288,-87.8293,1.724,1.97,1111122 
DISL,ioos:station:DISL:BSCA:1,2015-01-05T10:00:00Z,30.3288,-87.8293,1.687,1.96,1111122 
DISL,ioos:station:DISL:BSCA:1,2015-01-05T10:30:00Z,30.3288,-87.8293,1.642,1.81,1111122 
DISL,ioos:station:DISL:BSCA:1,2015-01-05T11:00:00Z,30.3288,-87.8293,1.611,1.92,1111122 
DISL,ioos:station:DISL:BSCA:1,2015-01-05T11:30:00Z,30.3288,-87.8293,1.602,1.92,1111122 
DISL,ioos:station:DISL:BSCA:1,2015-01-05T12:00:00Z,30.3288,-87.8293,1.589,1.88,1111122 
DISL,ioos:station:DISL:BSCA:1,2015-01-05T12:30:00Z,30.3288,-87.8293,1.559,1.88,1111122 
DISL,ioos:station:DISL:BSCA:1,2015-01-05T13:00:00Z,30.3288,-87.8293,1.549,1.82,1111122 
DISL,ioos:station:DISL:BSCA:1,2015-01-05T13:30:00Z,30.3288,-87.8293,1.526,2.09,1111122 
DISL,ioos:station:DISL:BSCA:1,2015-01-05T14:00:00Z,30.3288,-87.8293,1.517,1.92,1111122 
DISL,ioos:station:DISL:BSCA:1,2015-01-05T14:30:00Z,30.3288,-87.8293,1.508,1.79,1111122 
DISL,ioos:station:DISL:BSCA:1,2015-01-05T15:00:00Z,30.3288,-87.8293,1.516,1.9,1111122 
DISL,ioos:station:DISL:BSCA:1,2015-01-05T15:30:00Z,30.3288,-87.8293,1.51,1.85,1111122 
DISL,ioos:station:DISL:BSCA:1,2015-01-05T16:00:00Z,30.3288,-87.8293,1.503,1.88,1111122 
DISL,ioos:station:DISL:BSCA:1,2015-01-05T16:30:00Z,30.3288,-87.8293,1.541,1.89,1111122 
DISL,ioos:station:DISL:BSCA:1,2015-01-05T17:00:00Z,30.3288,-87.8293,1.547,1.88,1111122 
DISL,ioos:station:DISL:BSCA:1,2015-01-05T17:30:00Z,30.3288,-87.8293,1.551,2.03,1111122 
DISL,ioos:station:DISL:BSCA:1,2015-01-05T18:00:00Z,30.3288,-87.8293,1.561,2.95,1111122 
DISL,ioos:station:DISL:BSCA:1,2015-01-05T18:30:00Z,30.3288,-87.8293,1.593,2.42,1111122 
DISL,ioos:station:DISL:BSCA:1,2015-01-05T19:00:00Z,30.3288,-87.8293,1.618,1.97,1111122 
DISL,ioos:station:DISL:BSCA:1,2015-01-05T19:30:00Z,30.3288,-87.8293,1.66,1.93,1111122 
DISL,ioos:station:DISL:BSCA:1,2015-01-05T20:00:00Z,30.3288,-87.8293,1.681,2.2,1111122 
DISL,ioos:station:DISL:BSCA:1,2015-01-05T20:30:00Z,30.3288,-87.8293,1.738,1.84,1111122 
DISL,ioos:station:DISL:BSCA:1,2015-01-05T21:00:00Z,30.3288,-87.8293,1.765,1.97,1111122 
DISL,ioos:station:DISL:BSCA:1,2015-01-05T21:30:00Z,30.3288,-87.8293,1.787,2.21,1111122 
DISL,ioos:station:DISL:BSCA:1,2015-01-05T22:00:00Z,30.3288,-87.8293,1.816,2.29,1111122 
DISL,ioos:station:DISL:BSCA:1,2015-01-05T22:30:00Z,30.3288,-87.8293,1.83,2.29,1111122 
DISL,ioos:station:DISL:BSCA:1,2015-01-05T23:00:00Z,30.3288,-87.8293,1.847,2.04,1111122 
DISL,ioos:station:DISL:BSCA:1,2015-01-05T23:30:00Z,30.3288,-87.8293,1.887,1.22,1111122 
DISL,ioos:station:DISL:BSCA:1,2015-01-06T00:00:00Z,30.3288,-87.8293,1.917,1.47,1111122 
DISL,ioos:station:DISL:BSCA:1,2015-01-06T00:30:00Z,30.3288,-87.8293,1.956,1.35,1111122 
DISL,ioos:station:DISL:BSCA:1,2015-01-06T01:00:00Z,30.3288,-87.8293,1.988,1.32,1111122 
DISL,ioos:station:DISL:BSCA:1,2015-01-06T01:30:00Z,30.3288,-87.8293,2.015,1.3,1111122 
DISL,ioos:station:DISL:BSCA:1,2015-01-06T02:00:00Z,30.3288,-87.8293,2.044,1.21,1111122 
DISL,ioos:station:DISL:BSCA:1,2015-01-06T02:30:00Z,30.3288,-87.8293,2.065,1.2,1111122 
DISL,ioos:station:DISL:BSCA:1,2015-01-06T03:00:00Z,30.3288,-87.8293,2.077,1.11,1111122 
DISL,ioos:station:DISL:BSCA:1,2015-01-06T03:30:00Z,30.3288,-87.8293,2.075,1.32,1111122 
DISL,ioos:station:DISL:BSCA:1,2015-01-06T04:00:00Z,30.3288,-87.8293,2.074,1.32,1111122 
DISL,ioos:station:DISL:BSCA:1,2015-01-06T04:30:00Z,30.3288,-87.8293,2.051,1.43,1111122 
DISL,ioos:station:DISL:BSCA:1,2015-01-06T05:00:00Z,30.3288,-87.8293,2.046,1.47,1111122 
DISL,ioos:station:DISL:BSCA:1,2015-01-06T05:30:00Z,30.3288,-87.8293,2.041,1.11,1111122 
DISL,ioos:station:DISL:BSCA:1,2015-01-06T06:00:00Z,30.3288,-87.8293,2.042,1.32,1111122 
DISL,ioos:station:DISL:BSCA:1,2015-01-06T06:30:00Z,30.3288,-87.8293,2.028,1.3,1111122 
DISL,ioos:station:DISL:BSCA:1,2015-01-06T07:00:00Z,30.3288,-87.8293,1.999,1.32,1111122 
DISL,ioos:station:DISL:BSCA:1,2015-01-06T07:30:00Z,30.3288,-87.8293,1.965,1.34,1111122 
DISL,ioos:station:DISL:BSCA:1,2015-01-06T08:00:00Z,30.3288,-87.8293,1.94,1.35,1111122 
DISL,ioos:station:DISL:BSCA:1,2015-01-06T08:30:00Z,30.3288,-87.8293,1.917,1.29,1111122 
DISL,ioos:station:DISL:BSCA:1,2015-01-06T09:00:00Z,30.3288,-87.8293,1.87,1.87,1111122 
DISL,ioos:station:DISL:BSCA:1,2015-01-06T09:30:00Z,30.3288,-87.8293,1.836,1.79,1111122 
DISL,ioos:station:DISL:BSCA:1,2015-01-06T10:00:00Z,30.3288,-87.8293,1.778,1.95,1111122 
DISL,ioos:station:DISL:BSCA:1,2015-01-06T10:30:00Z,30.3288,-87.8293,1.681,7.82,1111122 
DISL,ioos:station:DISL:BSCA:1,2015-01-06T11:00:00Z,30.3288,-87.8293,1.687,1.32,1111122 
DISL,ioos:station:DISL:BSCA:1,2015-01-06T11:30:00Z,30.3288,-87.8293,1.644,1.58,1111122 
DISL,ioos:station:DISL:BSCA:1,2015-01-06T12:00:00Z,30.3288,-87.8293,1.618,2.01,1111122 
DISL,ioos:station:DISL:BSCA:1,2015-01-06T12:30:00Z,30.3288,-87.8293,1.603,1.87,1111122 
DISL,ioos:station:DISL:BSCA:1,2015-01-06T13:00:00Z,30.3288,-87.8293,1.577,2.07,1111122 
DISL,ioos:station:DISL:BSCA:1,2015-01-06T13:30:00Z,30.3288,-87.8293,1.579,1.87,1111122 
DISL,ioos:station:DISL:BSCA:1,2015-01-06T14:00:00Z,30.3288,-87.8293,1.574,1.66,1111122 
DISL,ioos:station:DISL:BSCA:1,2015-01-06T14:30:00Z,30.3288,-87.8293,1.549,2.58,1111122 
DISL,ioos:station:DISL:BSCA:1,2015-01-06T15:00:00Z,30.3288,-87.8293,1.529,2.39,1111122 
DISL,ioos:station:DISL:BSCA:1,2015-01-06T15:30:00Z,30.3288,-87.8293,1.503,2.8,1111122 